[[{"header":{"parameterUnit":"m.s-1","parameterCategory":1,"la1":30.2991,"la2":30.254,"lo1":-89.0895,"lo2":-89.0444,"dy":0.0017,"dx":0.0017,"nx":28,"ny":28,"refTime":"2023-09-18T21:00:00:Z","depth":0,"parameterNumber":2,"parameterNumberName":"U-component_of_WINDS"},"data":[0,0,0,0,0,0,0,0,0,0,0,0,0,0,0,0,0,0,0,0,0,0,0,0,0,0,0,0,0,0,0,0,0,0,0,0,0,0,0,0,0,0,0,0,0,0,0,0,0,0,0,0,0,0,0,0,0,0,-2.8175,-2.8175,0,-2.8169,-2.8169,-2.8169,-2.8086,-2.8084,-2.8082,-2.808,-2.8076,-2.8078,-2.8079,0,0,0,0,0,0,0,0,0,0,0,0,0,-2.8114,-2.8116,-2.8175,-2.8175,-2.8175,-2.817,-2.8169,-2.8169,-2.8087,-2.8084,-2.8082,-2.8079,-2.8075,-2.8077,-2.808,0,0,0,0,0,0,0,0,0,0,0,0,0,-2.8128,-2.8116,-2.8175,-2.8133,-2.8129,-2.817,-2.8169,-2.8169,-2.8087,-2.8084,-2.8081,-2.8078,-2.8075,-2.8077,-2.808,-2.8161,0,0,-2.8088,-2.809,0,0,0,0,0,0,0,0,-2.8127,-2.813,-2.8139,-2.8136,-2.8132,-2.8125,-2.8146,-2.8166,-2.8088,-2.8103,-2.808,-2.8077,-2.8095,-2.8096,-2.8102,-2.816,-2.816,-2.8089,-2.809,-2.8092,-2.8092,0,0,0,0,0,0,0,-2.8126,-2.813,-2.8173,-2.8139,-2.8135,-2.8114,-2.8113,-2.815,-2.8117,-2.8102,-2.8096,-2.8096,-2.8092,-2.8099,-2.8101,-2.816,-2.8089,-2.8091,-2.8093,-2.8094,-2.8283,-2.8286,0,0,0,0,0,0,-2.8131,-2.813,-2.8173,-2.8173,-2.8122,-2.8118,-2.8116,-2.8131,-2.8116,-2.8111,-2.8099,-2.8092,-2.8096,-2.8098,-2.8101,-2.8192,-2.8092,-2.8094,-2.8096,-2.8279,-2.8283,-2.8287,0,0,0,0,0,0,-2.813,-2.8136,-2.8173,-2.815,-2.8153,-2.8123,-2.8139,-2.8132,-2.8139,-2.8114,-2.8108,-2.8112,-2.8094,-2.8097,-2.8146,-2.8191,-2.8095,-2.8098,-2.8275,-2.828,-2.8285,-2.8377,0,0,0,0,0,0,-2.8129,-2.8136,-2.8166,-2.8151,-2.8154,-2.8218,-2.8142,-2.8134,-2.8144,-2.8135,-2.8125,-2.812,-2.8092,-2.8142,-2.8149,-2.8193,-2.81,-2.8271,-2.8278,-2.8283,-2.837,-2.8385,-2.8398,0,0,0,0,0,-2.8127,-2.8193,-2.8168,-2.8174,-2.8191,-2.8221,-2.8223,-2.8189,-2.8148,-2.8178,-2.8162,-2.812,-2.8186,-2.8148,-2.8154,-2.82,-2.8268,-2.8276,-2.8283,-2.8364,-2.8382,-2.8397,0,0,0,0,0,0,-2.8215,-2.819,-2.8162,-2.8225,-2.8226,-2.8207,-2.8244,-2.8209,-2.8222,-2.8213,-2.817,-2.8168,-2.8224,-2.8217,-2.8176,-2.8277,-2.8219,-2.8229,-2.8279,-2.8296,-2.8309,-2.8309,-2.8102,0,0,0,0,0,-2.8242,-2.8268,-2.8245,-2.8303,-2.8304,-2.8275,-2.8286,-2.8259,-2.8258,-2.8258,-2.8246,-2.8247,-2.8267,-2.8281,-2.8299,-2.8369,-2.8365,-2.8404,-2.8418,-2.843,-2.8437,-2.8473,-2.8489,-2.8312,-2.8312,-2.8311,0,0,-2.8298,-2.8287,-2.8306,-2.832,-2.8317,-2.8345,-2.8275,-2.8308,-2.8328,-2.8263,-2.8308,-2.8299,-2.8297,-2.8357,-2.8383,-2.8353,-2.8486,-2.8439,-2.8448,-2.845,-2.8482,-2.8499,-2.8514,-2.8317,-2.8316,-2.8315,0,0,-2.8412,-2.8408,-2.8454,-2.8453,-2.8449,-2.8429,-2.844,-2.8427,-2.8418,-2.8462,-2.8414,-2.8438,-2.8474,-2.8474,-2.8479,-2.8593,-2.8555,-2.8601,-2.8672,-2.8707,-2.872,-2.8733,-2.8772,-2.8786,-2.8609,-2.8609,-2.8609,0,-2.8482,-2.8521,-2.8483,-2.8518,-2.8525,-2.8468,-2.8515,-2.8515,-2.8518,-2.8524,-2.8491,-2.8535,-2.853,-2.8588,-2.8616,-2.8622,-2.8633,-2.8601,-2.8722,-2.8733,-2.8744,-2.8781,-2.8796,-2.8615,-2.8614,-2.8613,-2.8613,0,-2.8606,-2.8634,-2.8672,-2.8675,-2.8687,-2.8728,-2.8696,-2.8712,-2.8685,-2.8668,-2.8713,-2.8705,-2.8719,-2.8731,-2.8705,-2.8786,-2.8767,-2.8729,-2.867,-2.8767,-2.8801,-2.8815,-2.8622,-2.862,-2.8619,-2.8617,0,0,-2.8775,-2.8756,-2.877,-2.877,-2.8762,-2.8783,-2.8822,-2.8834,-2.8849,-2.8853,-2.8883,-2.8915,-2.8879,-2.8885,-2.8858,-2.8889,-2.8978,-2.8847,-2.8846,-2.887,-2.9065,-2.9092,-2.9109,-2.8954,-2.8956,-2.8959,-2.9064,0,-2.8884,-2.8947,-2.8914,-2.8982,-2.9006,-2.8952,-2.8985,-2.8984,-2.8969,-2.8988,-2.8972,-2.8995,-2.8947,-2.8949,-2.8978,-2.8962,-2.9017,-2.8954,-2.8981,-2.8982,-2.8981,-2.9127,-2.9156,-2.9256,-2.9077,-2.9079,-2.9081,0,-2.902,-2.9028,-2.9098,-2.9083,-2.9093,-2.9123,-2.9131,-2.9151,-2.9148,-2.9135,-2.9141,-2.9107,-2.9143,-2.9087,-2.9136,-2.9094,-2.9103,-2.9097,-2.91,-2.9099,-2.9036,-2.9129,-2.9287,-2.9302,-2.9102,-2.91,-2.9099,0,-2.9134,-2.9163,-2.9208,-2.921,-2.9195,-2.9217,-2.9212,-2.9206,-2.9216,-2.9224,-2.9229,-2.9242,-2.9249,-2.926,-2.923,-2.9191,-2.9282,-2.9223,-2.9272,-2.9273,-2.9292,-2.9291,-2.9452,-2.9302,-2.9301,-2.9301,-2.9301,0,-2.9258,-2.9302,-2.9258,-2.9286,-2.9334,-2.9296,-2.9344,-2.9333,-2.9328,-2.9353,-2.9308,-2.9332,-2.9292,-2.9312,-2.9289,-2.9332,-2.9336,-2.9326,-2.9319,-2.9329,-2.933,-2.9333,-2.9325,-2.9305,-2.9304,-2.9303,-2.9303,0,-2.9393,-2.9366,-2.9411,-2.9392,-2.9389,-2.9425,-2.9409,-2.9434,-2.9416,-2.9447,-2.9453,-2.9425,-2.9446,-2.9418,-2.9437,-2.9421,-2.948,-2.9463,-2.948,-2.9475,-2.9524,-2.9519,-2.9692,-2.9712,-2.955,-2.9552,-2.9553,0,-2.9473,-2.9506,-2.9491,-2.9503,-2.95,-2.9522,-2.9531,-2.9494,-2.9506,-2.9505,-2.9529,-2.9547,-2.9558,-2.9594,-2.9576,-2.959,-2.9573,-2.9632,-2.9574,-2.9583,-2.9571,-2.9569,-2.9571,-2.9643,-2.9645,-2.9647,-2.9648,0,-2.9618,-2.9602,-2.9617,-2.9627,-2.9638,-2.9645,-2.9648,-2.9661,-2.9623,-2.9638,-2.9658,-2.9667,-2.9686,-2.9703,-2.9712,-2.9707,-2.9671,-2.9667,-2.9678,-2.9688,-2.9696,-2.969,-2.951,-2.9663,-2.9661,-2.966,-2.9659,-2.9659,-2.9726,-2.9752,-2.9745,-2.9762,-2.976,-2.9764,-2.9786,-2.977,-2.9786,-2.9797,-2.9776,-2.9801,-2.9797,-2.9805,-2.9804,-2.9824,-2.9798,-2.9815,-2.9819,-2.9824,-2.983,-2.9694,-2.9826,-2.9825,-2.9825,-2.9824,-2.9824,0,-2.9867,-2.9859,-2.9876,-2.988,-2.9894,-2.9859,-2.986,-2.9874,-2.9897,-2.9896,-2.9908,-2.9931,-2.9947,-2.993,-2.9943,-2.9962,-2.9946,-2.9967,-2.9964,-2.9963,-2.9854,-2.9841,-2.9979,-2.9979,-2.9979,-2.9979,-2.9979,-2.9979,-2.9941,-2.9982,-2.9966,-3.0006,-2.9998,-3.0022,-3.0025,-3.0028,-3.0027,-3.0054,-3.0067,-3.0056,-3.0048,-3.006,-3.0073,-3.0068,-3.0074,-3.01,-3.0089,-2.9987,-2.9971,-2.9957,-2.9945,-3.0102,-3.0103,-3.0197,-3.0198,-3.0198]},{"header":{"parameterUnit":"m.s-1","parameterCategory":1,"la1":30.2991,"la2":30.254,"lo1":-89.0895,"lo2":-89.0444,"dy":0.0017,"dx":0.0017,"nx":28,"ny":28,"refTime":"2023-09-18T21:00:00:Z","depth":0,"parameterNumber":3,"parameterNumberName":"V-component_of_WINDS"},"data":[0,0,0,0,0,0,0,0,0,0,0,0,0,0,0,0,0,0,0,0,0,0,0,0,0,0,0,0,0,0,0,0,0,0,0,0,0,0,0,0,0,0,0,0,0,0,0,0,0,0,0,0,0,0,0,0,0,0,1.8409,1.8409,0,1.8383,1.8383,1.8382,1.8362,1.8362,1.8361,1.8361,1.8335,1.8334,1.8334,0,0,0,0,0,0,0,0,0,0,0,0,0,1.844,1.8439,1.8409,1.8409,1.8408,1.8383,1.8383,1.8382,1.8362,1.8362,1.8361,1.8361,1.8335,1.8334,1.8334,0,0,0,0,0,0,0,0,0,0,0,0,0,1.8421,1.8439,1.8409,1.8395,1.8394,1.8383,1.8383,1.8382,1.8362,1.8362,1.8361,1.8361,1.8335,1.8334,1.8334,1.8335,0,0,1.8331,1.8331,0,0,0,0,0,0,0,0,1.8423,1.842,1.8397,1.8396,1.8394,1.8375,1.8384,1.8366,1.8362,1.8374,1.8361,1.8361,1.8348,1.8347,1.8342,1.8334,1.8332,1.8331,1.8331,1.833,1.833,0,0,0,0,0,0,0,1.8424,1.8421,1.8399,1.8397,1.8395,1.839,1.8387,1.838,1.8363,1.8373,1.8371,1.8369,1.8348,1.8343,1.8342,1.8332,1.8331,1.833,1.833,1.833,1.8321,1.8322,0,0,0,0,0,0,1.8427,1.8423,1.84,1.8398,1.8408,1.8389,1.8386,1.8382,1.8363,1.836,1.8369,1.8368,1.8345,1.8343,1.8341,1.834,1.833,1.833,1.8329,1.8321,1.8321,1.8322,0,0,0,0,0,0,1.8428,1.8426,1.8401,1.841,1.8406,1.8389,1.8384,1.8381,1.8377,1.836,1.8357,1.8368,1.8344,1.8342,1.8336,1.8339,1.8329,1.8329,1.8321,1.8321,1.8322,1.8339,0,0,0,0,0,0,1.8429,1.8426,1.8427,1.841,1.8406,1.8397,1.8385,1.8381,1.8376,1.8374,1.8358,1.8355,1.8344,1.8337,1.8335,1.8337,1.8328,1.8321,1.8321,1.8321,1.8338,1.834,1.8341,0,0,0,0,0,1.843,1.8433,1.8427,1.8424,1.8406,1.8397,1.8395,1.8381,1.8376,1.8376,1.8365,1.8356,1.8339,1.8337,1.8334,1.8336,1.832,1.8321,1.8321,1.8337,1.8339,1.8341,0,0,0,0,0,0,1.845,1.843,1.8423,1.8421,1.8411,1.8394,1.8393,1.8384,1.8376,1.8375,1.8359,1.8355,1.8351,1.8343,1.8342,1.8336,1.8328,1.8328,1.8341,1.8343,1.8345,1.8346,1.8327,0,0,0,0,0,1.8454,1.8449,1.8432,1.8431,1.8426,1.8411,1.8406,1.8397,1.8386,1.8382,1.837,1.836,1.8352,1.8347,1.8339,1.8337,1.8332,1.8337,1.8338,1.834,1.834,1.8337,1.8338,1.8323,1.8323,1.8323,0,0,1.8463,1.8451,1.8449,1.8434,1.8426,1.8419,1.8407,1.8402,1.8397,1.8381,1.8374,1.8366,1.8353,1.8348,1.8346,1.8342,1.8343,1.834,1.8342,1.8341,1.8337,1.8339,1.834,1.8324,1.8324,1.8324,0,0,1.8475,1.8466,1.8463,1.8455,1.8441,1.8431,1.843,1.8414,1.8408,1.8401,1.8388,1.8382,1.837,1.836,1.8354,1.8362,1.8352,1.8359,1.8368,1.8365,1.8366,1.8367,1.8369,1.8369,1.836,1.836,1.836,0,1.8487,1.8477,1.8463,1.8458,1.8452,1.8437,1.8434,1.8426,1.8411,1.8406,1.8402,1.8384,1.8375,1.8368,1.8369,1.8365,1.8363,1.8361,1.8367,1.8368,1.8369,1.837,1.8371,1.8361,1.8361,1.836,1.836,0,1.8492,1.8486,1.8485,1.8471,1.8464,1.846,1.8445,1.8441,1.8432,1.8422,1.8414,1.8402,1.8391,1.8388,1.838,1.8379,1.8377,1.837,1.8362,1.8371,1.8372,1.8372,1.8362,1.8362,1.8361,1.8361,0,0,1.8516,1.8493,1.8493,1.8485,1.8469,1.8464,1.8459,1.8447,1.8443,1.8433,1.8428,1.8417,1.841,1.8403,1.8393,1.839,1.8395,1.8383,1.8383,1.8385,1.8393,1.8398,1.8399,1.8389,1.8389,1.8389,1.8394,0,1.8524,1.8514,1.8501,1.8496,1.8489,1.8474,1.847,1.8459,1.8449,1.8442,1.8431,1.8423,1.8415,1.841,1.8407,1.8396,1.8397,1.8395,1.8383,1.8383,1.8386,1.8399,1.8404,1.8409,1.8394,1.8394,1.8394,0,1.8533,1.8523,1.8517,1.85,1.8497,1.8493,1.8481,1.8474,1.8461,1.8454,1.8446,1.8435,1.8428,1.8421,1.8411,1.841,1.8405,1.8398,1.8398,1.8396,1.8389,1.8397,1.841,1.8411,1.8395,1.8395,1.8395,0,1.8549,1.8535,1.8529,1.8523,1.8504,1.8501,1.8493,1.848,1.8473,1.8463,1.8458,1.8447,1.8441,1.8432,1.8418,1.8415,1.8409,1.8402,1.8403,1.8403,1.8402,1.8402,1.8414,1.8399,1.8399,1.8399,1.8399,0,1.856,1.8556,1.8536,1.8532,1.8527,1.8512,1.8507,1.8498,1.8486,1.848,1.8466,1.8461,1.8443,1.8435,1.8424,1.8417,1.8414,1.8408,1.8405,1.8409,1.8409,1.8404,1.8403,1.84,1.84,1.84,1.84,0,1.8577,1.8563,1.8556,1.8538,1.8533,1.853,1.8515,1.851,1.8499,1.8491,1.8489,1.8472,1.8462,1.8447,1.8433,1.8425,1.8419,1.8415,1.8423,1.8421,1.8423,1.8422,1.8432,1.8432,1.8418,1.8418,1.8418,0,1.8584,1.8581,1.8563,1.8557,1.855,1.8541,1.8535,1.8519,1.8513,1.8497,1.8495,1.8483,1.8473,1.8457,1.8444,1.8432,1.8427,1.8431,1.8425,1.8429,1.8426,1.8426,1.8425,1.8432,1.8432,1.8433,1.8433,0,1.8598,1.8591,1.8582,1.857,1.8563,1.8553,1.8542,1.8538,1.8521,1.8514,1.8503,1.8496,1.848,1.8469,1.8455,1.8446,1.8436,1.8435,1.8434,1.8438,1.8442,1.8439,1.8426,1.8434,1.8434,1.8434,1.8434,1.8434,1.8609,1.8605,1.8592,1.8582,1.8572,1.8562,1.8557,1.8545,1.8536,1.8523,1.8514,1.8504,1.849,1.847,1.8462,1.8453,1.8449,1.8448,1.8448,1.8448,1.8449,1.8444,1.8451,1.845,1.845,1.845,1.845,0,1.8621,1.8612,1.8603,1.8588,1.858,1.8572,1.8559,1.8553,1.8544,1.8532,1.8522,1.851,1.8498,1.8483,1.8471,1.8466,1.8461,1.8463,1.8463,1.8461,1.8454,1.8455,1.8468,1.8468,1.8468,1.8468,1.8468,1.8468,1.8627,1.8619,1.8611,1.8598,1.8588,1.8578,1.8571,1.8562,1.8552,1.8538,1.8529,1.8519,1.8506,1.8492,1.8481,1.8477,1.8472,1.8476,1.847,1.8463,1.8462,1.846,1.8461,1.8475,1.8475,1.8478,1.8478,1.8478]}]]